STARLINK-1434, 45712

Orbit data source: Space-Track

STARLINK-1434, 45712 is a payload satellite owned by SpaceX/Seattle (US) in LEO that was launched on Thu, 04 Jun 2020 UTC via an FALCON 9 launch vehicle from the Air Force Eastern Test Range (AFETR). Payload-class satellites include a variety of spacecraft equipped with specific instruments for various scientific and technological missions. These include communications satellites like Starlink; space stations such as the ISS; scientific satellites like the Hubble; Earth observation satellites from companies like Planet Labs, Umbra, and HawkEye 360; GPS; miniature CubeSats for education and research; and military/defense satellites.

Loading next visibility...
Identifier
45712, 2020-035BH
Orbit
LEO
Country
Flag of USUS
Related business
Manufacturer
SpaceX/Seattle
Mission
Partially operational Commercial Communications
Bus & Motor
STARLINK, Unknown motor
Mass
260 kg wet, ~248 kg dry
Launch date (UTC)
2020-06-04 (6 years ago)
Launch vehicle
FALCON 9
Launch site
Air Force Eastern Test Range (AFETR)
Object type
Payload
Rocket body
Debris
Shape & HBR
Box + 1 Pan, 10.1 m
Radar Cross Section
13.562 m², Large (>1 m²)

Expand to show TLE details & history
Last TLE update: 23 hours ago

TLE from 23 hours ago
0 STARLINK-1434
1 45712U 20035BH  26132.27253933  .00031938  00000-0  10175-2 0  9997
2 45712  53.0502  84.2037 0003580  30.6642 329.4566 15.32290166329124
Epoch: 2026-05-12T06:32Z
TLE epoch observation values (Epoch: 2026-05-12T06:32:27.398Z)
Latitude
-0.00007°
Longitude
116.04019°
Altitude
467.759 km
Speed
7.635 km/s
True Right ascension
05h 36m 48s
True Declination
0° 00' 00"
Sunlit
Object was in daylight at epoch
Visualization orbit readout
Latitude
Unknown
Longitude
Unknown
Altitude
Unknown
Speed
Unknown
Apparent Right ascension
Unknown
Apparent Declination
Unknown
Sunlit
N/A
Visualization observer readout
Local Sidereal Time
14:08:34
Azimuth
Unknown
Elevation
Unknown
Doppler factor
Unknown
Orbital elements
Apogee altitude
471.707 km
Perigee altitude
466.804 km
Semi-major axis
6,847.393 km
Eccentricity
0.00036
Inclination
53.0502°
RAAN
84.2037°
Arg. of periapsis
30.6642°
True anomaly
329.43574°
Mean anomaly
329.4566°
Eccentric anomaly
329.44617°
Mean motion
3.8305 °/min
Orbital period
93.98 mins
BSTAR
0.0010175
Loading maneuver chart data...
Computing Atmospheric mass density...

Documentation

Showing up to 5 results
|